QAC78 EDDM-EIDW

Flight info

Callsign QAC78
Flight time N/A
Altitude 34000
Route INPUD2S/26L INPUD Y102 ALIBU DCT MASEK DCT MAPOX DCT OTMEC DCT RAVLO Y70 OTBED L60 PENIL UL28 LELDO M145 BAGSO BAGSO4L
Aircraft B77L/H-SDE1E2E3FGHIJ2J3J4J5M1RWXY/LB1D1

Departure

Time N/A
Airport Munich Airport (EDDM)

Arrival

Time 2026-05-07 20:52
Airport Dublin Airport (EIDW)
Time Latitude Longitude Altitude Speed Heading
2026-05-07 19:19 50.38992 10.20642 36039 ft 469 kts 313°
2026-05-07 19:19 50.41188 10.16873 36045 ft 470 kts 310°
2026-05-07 19:19 50.45504 10.09193 36045 ft 469 kts 310°
2026-05-07 19:20 50.49818 10.01486 36030 ft 469 kts 310°
2026-05-07 19:20 50.54131 9.93760 36044 ft 470 kts 310°
2026-05-07 19:21 50.58409 9.86072 36039 ft 469 kts 310°
2026-05-07 19:21 50.62695 9.78348 36048 ft 469 kts 310°
2026-05-07 19:22 50.66974 9.70613 36050 ft 469 kts 310°
2026-05-07 19:22 50.71248 9.62865 36057 ft 469 kts 310°
2026-05-07 19:23 50.75461 9.55046 36057 ft 469 kts 309°
2026-05-07 19:23 50.79595 9.47087 36055 ft 468 kts 309°
2026-05-07 19:24 50.83746 9.39083 36055 ft 469 kts 309°
2026-05-07 19:24 50.87859 9.31140 36062 ft 468 kts 309°
2026-05-07 19:25 50.91977 9.23168 36061 ft 467 kts 309°
2026-05-07 19:25 50.96099 9.15165 36070 ft 468 kts 309°
2026-05-07 19:26 51.00188 9.07204 36074 ft 468 kts 309°
2026-05-07 19:26 51.04298 8.99175 36059 ft 468 kts 309°
2026-05-07 19:27 51.08371 8.91198 36060 ft 468 kts 309°
2026-05-07 19:27 51.12442 8.83152 36053 ft 468 kts 306°
2026-05-07 19:28 51.15735 8.74215 36052 ft 468 kts 298°
2026-05-07 19:28 51.18758 8.65087 36052 ft 467 kts 298°
2026-05-07 19:29 51.21776 8.55930 36044 ft 468 kts 298°
2026-05-07 19:29 51.24795 8.46735 36034 ft 467 kts 298°
2026-05-07 19:30 51.27798 8.37556 36042 ft 468 kts 298°
2026-05-07 19:30 51.30821 8.28281 36046 ft 468 kts 297°
2026-05-07 19:31 51.33819 8.19045 36045 ft 468 kts 297°
2026-05-07 19:31 51.36794 8.09848 36048 ft 467 kts 297°
2026-05-07 19:32 51.39784 8.00569 36064 ft 468 kts 297°
2026-05-07 19:32 51.42741 7.91358 36054 ft 467 kts 297°
2026-05-07 19:33 51.45697 7.82115 36060 ft 469 kts 296°
2026-05-07 19:33 51.48663 7.72807 36063 ft 469 kts 296°
2026-05-07 19:34 51.51610 7.63524 36066 ft 469 kts 296°
2026-05-07 19:34 51.54542 7.54251 36065 ft 469 kts 296°
2026-05-07 19:35 51.57440 7.45054 36062 ft 469 kts 296°
2026-05-07 19:35 51.60373 7.35706 36061 ft 470 kts 296°
2026-05-07 19:36 51.63322 7.26274 36062 ft 470 kts 295°
2026-05-07 19:36 51.66250 7.16873 36061 ft 470 kts 295°
2026-05-07 19:37 51.69173 7.07451 36061 ft 471 kts 295°
2026-05-07 19:37 51.72123 6.97905 36062 ft 471 kts 295°
2026-05-07 19:38 51.75026 6.88477 36066 ft 471 kts 295°
2026-05-07 19:38 51.77945 6.78955 36065 ft 471 kts 295°
2026-05-07 19:39 51.80827 6.69522 36063 ft 471 kts 295°
2026-05-07 19:39 51.83723 6.60003 36064 ft 471 kts 295°
2026-05-07 19:40 51.86615 6.50460 36062 ft 471 kts 295°
2026-05-07 19:40 51.89512 6.40860 36060 ft 471 kts 295°
2026-05-07 19:41 51.92390 6.31288 36062 ft 470 kts 295°
2026-05-07 19:41 51.95276 6.21650 36065 ft 471 kts 295°
2026-05-07 19:42 51.98119 6.12117 36062 ft 470 kts 295°
2026-05-07 19:42 52.00982 6.02482 36063 ft 471 kts 295°
2026-05-07 19:43 52.03818 5.92892 36064 ft 470 kts 295°
2026-05-07 19:43 52.06632 5.83347 36067 ft 471 kts 294°
2026-05-07 19:44 52.09698 5.73896 36069 ft 471 kts 298°
2026-05-07 19:44 52.12862 5.64487 36067 ft 471 kts 297°
2026-05-07 19:45 52.15973 5.55153 36068 ft 471 kts 297°
2026-05-07 19:45 52.19103 5.45702 36070 ft 472 kts 297°
2026-05-07 19:46 52.22230 5.36207 36071 ft 471 kts 297°
2026-05-07 19:46 52.25354 5.26679 36075 ft 471 kts 296°
2026-05-07 19:47 52.28431 5.17255 36076 ft 471 kts 296°
2026-05-07 19:47 52.31520 5.07753 36078 ft 474 kts 296°
2026-05-07 19:48 52.34600 4.98245 36080 ft 472 kts 296°
2026-05-07 19:48 52.37669 4.88729 36082 ft 475 kts 296°
2026-05-07 19:49 52.40742 4.79167 36081 ft 474 kts 296°
2026-05-07 19:49 52.43801 4.69608 36084 ft 476 kts 296°
2026-05-07 19:50 52.46875 4.59967 36086 ft 479 kts 296°
2026-05-07 19:50 52.49930 4.50347 36085 ft 477 kts 296°
2026-05-07 19:51 52.52978 4.40709 36086 ft 478 kts 296°
2026-05-07 19:51 52.56039 4.30992 36090 ft 479 kts 296°
2026-05-07 19:52 52.59082 4.21295 36093 ft 481 kts 296°
2026-05-07 19:52 52.62111 4.11605 36092 ft 479 kts 296°
2026-05-07 19:53 52.65168 4.01784 36094 ft 481 kts 296°
2026-05-07 19:53 52.68208 3.91977 36094 ft 481 kts 296°
2026-05-07 19:54 52.71231 3.82186 36095 ft 480 kts 296°
2026-05-07 19:54 52.74236 3.72417 36095 ft 482 kts 296°
2026-05-07 19:55 52.77252 3.62570 36100 ft 481 kts 296°
2026-05-07 19:55 52.80269 3.52678 36092 ft 483 kts 296°
2026-05-07 19:56 52.83257 3.42841 36094 ft 483 kts 296°
2026-05-07 19:56 52.86253 3.32938 36096 ft 483 kts 296°
2026-05-07 19:57 52.89243 3.23013 36099 ft 483 kts 296°
2026-05-07 19:57 52.91828 3.12796 36089 ft 482 kts 284°
2026-05-07 19:58 52.93342 3.02071 36098 ft 483 kts 282°
2026-05-07 19:58 52.94794 2.91213 36094 ft 482 kts 282°
2026-05-07 19:59 52.96220 2.80389 36101 ft 483 kts 281°
2026-05-07 19:59 52.97632 2.69541 36095 ft 482 kts 281°
2026-05-07 20:00 52.99036 2.58651 36095 ft 483 kts 281°
2026-05-07 20:00 53.00416 2.47844 36096 ft 483 kts 281°
2026-05-07 20:01 53.01794 2.36967 36100 ft 483 kts 281°
2026-05-07 20:01 53.03160 2.26099 36099 ft 483 kts 281°
2026-05-07 20:02 53.04521 2.15177 35911 ft 481 kts 281°
2026-05-07 20:02 53.05190 2.09775 36015 ft 486 kts 281°
2026-05-07 20:02 53.05868 2.04277 36065 ft 485 kts 281°
2026-05-07 20:03 53.07212 1.93316 36096 ft 483 kts 280°
2026-05-07 20:03 53.08534 1.82449 36094 ft 483 kts 280°
2026-05-07 20:04 53.09855 1.71494 36095 ft 484 kts 280°
2026-05-07 20:04 53.11164 1.60551 36093 ft 483 kts 280°
2026-05-07 20:05 53.11810 1.55117 36401 ft 484 kts 280°
2026-05-07 20:05 53.12467 1.49566 35983 ft 484 kts 280°
2026-05-07 20:05 53.13107 1.44140 36300 ft 483 kts 280°
2026-05-07 20:05 53.13747 1.38683 36172 ft 483 kts 280°
2026-05-07 20:06 53.15028 1.27705 36082 ft 482 kts 279°
2026-05-07 20:06 53.16293 1.16770 36078 ft 483 kts 279°
2026-05-07 20:07 53.17558 1.05744 36073 ft 483 kts 279°
2026-05-07 20:07 53.18803 0.94786 36073 ft 482 kts 279°
2026-05-07 20:08 53.20037 0.83842 36066 ft 483 kts 279°
2026-05-07 20:08 53.21269 0.72816 36057 ft 482 kts 279°
2026-05-07 20:09 53.22483 0.61857 35866 ft 482 kts 279°
2026-05-07 20:09 53.23090 0.56340 36273 ft 485 kts 279°
2026-05-07 20:10 53.24299 0.45269 36295 ft 482 kts 279°
2026-05-07 20:10 53.24896 0.39774 35949 ft 482 kts 279°
2026-05-07 20:10 53.25488 0.34290 36027 ft 482 kts 278°
2026-05-07 20:11 53.26669 0.23286 36050 ft 482 kts 278°
2026-05-07 20:11 53.27834 0.12324 36034 ft 481 kts 278°
2026-05-07 20:12 53.28998 0.01273 36042 ft 481 kts 278°
2026-05-07 20:12 53.30151 -0.09787 36043 ft 482 kts 278°
2026-05-07 20:13 53.31295 -0.20860 36039 ft 482 kts 278°
2026-05-07 20:13 53.32428 -0.31927 36035 ft 481 kts 278°
2026-05-07 20:14 53.33544 -0.42938 36043 ft 481 kts 278°
2026-05-07 20:14 53.34650 -0.53956 36046 ft 481 kts 278°
2026-05-07 20:15 53.35743 -0.64951 36036 ft 480 kts 278°
2026-05-07 20:15 53.36828 -0.75962 36034 ft 480 kts 277°
2026-05-07 20:16 53.37904 -0.86985 36013 ft 479 kts 277°
2026-05-07 20:16 53.38963 -0.97944 36014 ft 481 kts 277°
2026-05-07 20:17 53.40011 -1.08904 36012 ft 480 kts 277°
2026-05-07 20:17 53.41054 -1.19928 36012 ft 480 kts 277°
2026-05-07 20:18 53.42083 -1.30933 36021 ft 479 kts 277°
2026-05-07 20:18 53.43107 -1.41985 36002 ft 479 kts 277°
2026-05-07 20:19 53.44116 -1.52983 36009 ft 478 kts 277°
2026-05-07 20:19 53.45112 -1.63965 35998 ft 480 kts 277°
2026-05-07 20:20 53.46094 -1.74896 35992 ft 477 kts 276°
2026-05-07 20:20 53.47069 -1.85876 35995 ft 477 kts 276°
2026-05-07 20:21 53.48040 -1.96928 35987 ft 479 kts 276°
2026-05-07 20:21 53.48998 -2.07950 35991 ft 478 kts 276°
2026-05-07 20:22 53.49946 -2.18992 35998 ft 478 kts 276°
2026-05-07 20:22 53.50879 -2.29969 36006 ft 475 kts 276°
2026-05-07 20:23 53.51795 -2.40874 36005 ft 476 kts 276°
2026-05-07 20:23 53.52711 -2.51903 35994 ft 476 kts 276°
2026-05-07 20:24 53.53612 -2.62879 36001 ft 476 kts 276°
2026-05-07 20:24 53.54504 -2.73872 35994 ft 475 kts 275°
2026-05-07 20:25 53.55382 -2.84816 35996 ft 474 kts 275°
2026-05-07 20:25 53.56248 -2.95741 35997 ft 473 kts 275°
2026-05-07 20:26 53.57103 -3.06667 35999 ft 473 kts 275°
2026-05-07 20:26 53.57949 -3.17582 35739 ft 469 kts 275°
2026-05-07 20:26 53.58364 -3.23015 35225 ft 475 kts 275°
2026-05-07 20:27 53.58787 -3.28574 34199 ft 485 kts 275°
2026-05-07 20:27 53.59209 -3.34152 33221 ft 489 kts 275°
2026-05-07 20:27 53.59639 -3.39869 32359 ft 490 kts 275°
2026-05-07 20:27 53.60063 -3.45542 31497 ft 491 kts 275°
2026-05-07 20:28 53.60483 -3.51193 30645 ft 492 kts 275°
2026-05-07 20:28 53.60904 -3.56899 30115 ft 484 kts 275°
2026-05-07 20:28 53.61315 -3.62431 29660 ft 477 kts 277°
2026-05-07 20:28 53.62026 -3.67872 29155 ft 473 kts 285°
2026-05-07 20:29 53.63155 -3.73022 28630 ft 469 kts 289°
2026-05-07 20:29 53.64358 -3.78012 28106 ft 463 kts 290°
2026-05-07 20:29 53.65562 -3.82999 27581 ft 458 kts 290°
2026-05-07 20:29 53.66756 -3.87968 27037 ft 452 kts 290°
2026-05-07 20:30 53.67913 -3.92802 26509 ft 447 kts 290°
2026-05-07 20:30 53.69070 -3.97654 25978 ft 442 kts 290°
2026-05-07 20:30 53.70198 -4.02396 25428 ft 437 kts 290°
2026-05-07 20:30 53.71202 -4.07159 24888 ft 430 kts 283°
2026-05-07 20:31 53.71747 -4.12092 24350 ft 423 kts 274°
2026-05-07 20:31 53.71970 -4.16936 23823 ft 418 kts 272°
2026-05-07 20:31 53.72159 -4.21810 23281 ft 414 kts 272°
2026-05-07 20:31 53.72342 -4.26606 22743 ft 410 kts 272°
2026-05-07 20:32 53.72519 -4.31352 22210 ft 406 kts 272°
2026-05-07 20:32 53.72693 -4.36048 21672 ft 402 kts 272°
2026-05-07 20:32 53.72864 -4.40721 21134 ft 399 kts 272°
2026-05-07 20:32 53.73031 -4.45352 20598 ft 395 kts 272°
2026-05-07 20:33 53.73195 -4.49932 20066 ft 392 kts 272°
2026-05-07 20:33 53.73356 -4.54505 19532 ft 388 kts 272°
2026-05-07 20:33 53.73513 -4.58987 19004 ft 385 kts 272°
2026-05-07 20:33 53.73668 -4.63496 18475 ft 382 kts 272°
2026-05-07 20:34 53.73820 -4.67942 17958 ft 380 kts 271°
2026-05-07 20:34 53.73969 -4.72367 17429 ft 377 kts 271°
2026-05-07 20:34 53.74117 -4.76769 16890 ft 375 kts 271°
2026-05-07 20:34 53.74107 -4.81097 16291 ft 373 kts 263°
2026-05-07 20:35 53.73635 -4.85422 15557 ft 374 kts 252°
2026-05-07 20:35 53.72701 -4.89477 14970 ft 371 kts 242°
2026-05-07 20:35 53.71445 -4.93200 14311 ft 371 kts 238°
2026-05-07 20:35 53.70127 -4.96912 13595 ft 371 kts 238°
2026-05-07 20:36 53.68821 -5.00576 13098 ft 361 kts 238°
2026-05-07 20:36 53.67535 -5.04180 12526 ft 354 kts 238°
2026-05-07 20:36 53.66278 -5.07695 12059 ft 349 kts 238°
2026-05-07 20:36 53.65015 -5.11223 11963 ft 354 kts 238°
2026-05-07 20:37 53.63763 -5.14715 11955 ft 347 kts 238°
2026-05-07 20:37 53.62548 -5.18103 11951 ft 330 kts 238°
2026-05-07 20:37 53.61390 -5.21323 11950 ft 313 kts 238°
2026-05-07 20:37 53.60287 -5.24390 11951 ft 298 kts 238°
2026-05-07 20:38 53.59255 -5.27256 11805 ft 283 kts 238°
2026-05-07 20:38 53.58253 -5.30035 11372 ft 276 kts 238°
2026-05-07 20:38 53.57248 -5.32817 10784 ft 276 kts 238°
2026-05-07 20:38 53.56265 -5.35533 10194 ft 276 kts 238°
2026-05-07 20:39 53.55263 -5.38302 9753 ft 276 kts 238°
2026-05-07 20:39 53.54266 -5.41054 9317 ft 278 kts 238°
2026-05-07 20:39 53.53263 -5.43817 8948 ft 278 kts 238°
2026-05-07 20:39 53.52260 -5.46579 8612 ft 276 kts 238°
2026-05-07 20:40 53.51281 -5.49272 8304 ft 273 kts 238°
2026-05-07 20:40 53.50268 -5.51950 7991 ft 269 kts 231°
2026-05-07 20:40 53.48839 -5.53824 7958 ft 254 kts 203°
2026-05-07 20:40 53.47168 -5.54409 7970 ft 246 kts 184°
2026-05-07 20:41 53.45431 -5.54287 7977 ft 250 kts 176°
2026-05-07 20:41 53.43712 -5.53911 7979 ft 250 kts 174°
2026-05-07 20:41 53.41987 -5.53451 7976 ft 248 kts 173°
2026-05-07 20:41 53.40319 -5.53007 7969 ft 236 kts 177°
2026-05-07 20:42 53.38717 -5.53182 7670 ft 236 kts 192°
2026-05-07 20:42 53.37098 -5.53753 7122 ft 240 kts 194°
2026-05-07 20:42 53.35477 -5.54371 6850 ft 236 kts 194°
2026-05-07 20:42 53.33912 -5.54962 6687 ft 229 kts 194°
2026-05-07 20:43 53.32383 -5.55539 6557 ft 221 kts 197°
2026-05-07 20:43 53.31041 -5.56674 6513 ft 218 kts 224°
2026-05-07 20:43 53.30190 -5.58718 6475 ft 220 kts 250°
2026-05-07 20:43 53.30012 -5.61262 6292 ft 222 kts 278°
2026-05-07 20:44 53.30544 -5.63661 6108 ft 223 kts 295°
2026-05-07 20:44 53.31263 -5.65947 5928 ft 223 kts 295°
2026-05-07 20:44 53.31997 -5.68258 5741 ft 231 kts 295°
2026-05-07 20:44 53.32761 -5.70669 5449 ft 235 kts 295°
2026-05-07 20:45 53.33509 -5.73023 5342 ft 226 kts 295°
2026-05-07 20:45 53.34233 -5.75306 5300 ft 223 kts 295°
2026-05-07 20:45 53.34957 -5.77593 5176 ft 222 kts 295°
2026-05-07 20:45 53.35677 -5.79870 5046 ft 220 kts 295°
2026-05-07 20:46 53.36386 -5.82114 4914 ft 216 kts 295°
2026-05-07 20:46 53.37085 -5.84326 4785 ft 214 kts 295°
2026-05-07 20:46 53.37777 -5.86518 4643 ft 210 kts 295°
2026-05-07 20:46 53.38443 -5.88631 4496 ft 202 kts 295°
2026-05-07 20:47 53.39090 -5.90681 4343 ft 196 kts 296°
2026-05-07 20:47 53.39834 -5.92566 4089 ft 196 kts 297°
2026-05-07 20:47 53.40302 -5.94680 3826 ft 192 kts 278°
2026-05-07 20:47 53.40472 -5.96875 3569 ft 191 kts 272°
2026-05-07 20:48 53.40580 -5.99078 3312 ft 191 kts 272°
2026-05-07 20:48 53.40694 -6.01315 3055 ft 191 kts 272°
2026-05-07 20:48 53.40813 -6.03460 2794 ft 179 kts 272°
2026-05-07 20:48 53.40924 -6.05448 2563 ft 169 kts 272°
2026-05-07 20:49 53.41032 -6.07365 2345 ft 161 kts 272°
2026-05-07 20:49 53.41135 -6.09184 2124 ft 153 kts 272°
2026-05-07 20:49 53.41232 -6.10910 1928 ft 145 kts 272°
2026-05-07 20:49 53.41327 -6.12589 1729 ft 143 kts 272°
2026-05-07 20:50 53.41416 -6.14252 1525 ft 143 kts 272°
2026-05-07 20:50 53.41508 -6.15926 1267 ft 141 kts 272°
2026-05-07 20:50 53.41607 -6.17556 1080 ft 143 kts 274°
2026-05-07 20:50 53.41704 -6.19230 891 ft 145 kts 271°
2026-05-07 20:51 53.41785 -6.20891 734 ft 143 kts 273°
2026-05-07 20:51 53.41889 -6.22551 527 ft 144 kts 273°
2026-05-07 20:51 53.41978 -6.24236 350 ft 147 kts 273°
2026-05-07 20:51 53.42074 -6.25915 221 ft 135 kts 273°
2026-05-07 20:52 53.42142 -6.27200 235 ft 85 kts 275°
2026-05-07 20:52 53.42182 -6.27895 241 ft 31 kts 276°
2026-05-07 20:52 53.42205 -6.28130 242 ft 15 kts 289°
2026-05-07 20:52 53.42245 -6.28230 243 ft 8 kts 308°
2026-05-07 20:53 53.42285 -6.28301 244 ft 9 kts 324°
2026-05-07 20:53 53.42342 -6.28314 245 ft 8 kts 20°
2026-05-07 20:53 53.42372 -6.28244 245 ft 8 kts 82°
2026-05-07 20:53 53.42372 -6.28147 244 ft 8 kts 93°
2026-05-07 20:54 53.42366 -6.28042 243 ft 10 kts 97°
2026-05-07 20:54 53.42358 -6.27921 242 ft 10 kts 96°
2026-05-07 20:54 53.42351 -6.27796 241 ft 11 kts 96°
2026-05-07 20:54 53.42343 -6.27654 238 ft 13 kts 96°
2026-05-07 20:55 53.42334 -6.27504 238 ft 12 kts 95°
2026-05-07 20:55 53.42326 -6.27360 238 ft 12 kts 95°
2026-05-07 20:55 53.42319 -6.27214 236 ft 13 kts 95°
2026-05-07 20:55 53.42310 -6.27056 235 ft 13 kts 95°
2026-05-07 20:56 53.42302 -6.26902 234 ft 13 kts 96°
2026-05-07 20:56 53.42292 -6.26744 232 ft 14 kts 96°
2026-05-07 20:56 53.42282 -6.26570 230 ft 15 kts 95°
2026-05-07 20:56 53.42273 -6.26389 226 ft 14 kts 96°
2026-05-07 20:57 53.42269 -6.26248 224 ft 11 kts 86°
2026-05-07 20:57 53.42298 -6.26114 222 ft 12 kts 55°
2026-05-07 20:57 53.42355 -6.26011 222 ft 11 kts 46°
2026-05-07 20:57 53.42411 -6.25914 220 ft 8 kts 46°
2026-05-07 20:58 53.42464 -6.25878 219 ft 8 kts 349°
2026-05-07 20:58 53.42498 -6.25939 221 ft 6 kts 283°
2026-05-07 20:58 53.42503 -6.26003 222 ft 4 kts 277°
2026-05-07 20:58 53.42507 -6.26064 223 ft 6 kts 276°
2026-05-07 20:59 53.42512 -6.26143 225 ft 7 kts 283°
2026-05-07 20:59 53.42536 -6.26164 225 ft 5 kts 354°
2026-05-07 20:59 53.42582 -6.26162 225 ft 4 kts
2026-05-07 20:59 53.42590 -6.26161 225 ft 0 kts